Terminal Aerodrome Forecast
Issued by NWS

Home | Current Version | Previous Version | Text Only | Print | Product List | Glossary On
Versions: 1 2 3 4 5 6 7 8 9 10 11 12 13 14 15 16 17 18
000
FTUS41 KILN 221100
TAFLUK
TAF
KLUK 221125Z 2212/2312 11006KT P6SM SCT022 OVC050
      TEMPO 2214/2216 BKN022
     FM222000 12009KT P6SM SCT035 BKN080
     FM230300 13009KT P6SM -RA SCT015 OVC035
     FM230600 15008KT 3SM -RA BR OVC015=

USA.gov is the U.S. government's official web portal to all federal, state and local government web resources and services.